NETSAT-2

Last updated on Sun Jun 21 2026 00:03:50 GMT+0000 (Coordinated Universal Time)

1 46507U 20068X 26171.01274924 .00019839 00000+0 40674-3 0 9997 2 46507 97.8618 179.3850 0003088 17.4041 342.7313 15.46101808316177
UTC large
Height (km)
Speed (km/s)
/
Latitude / Longitude
Inclination (degrees)
Orbital Period (minutes)
Azimuth
Elevation
Range (km)
Doppler Factor

Next 0 passes for location: London (51.5072 / 0.1276)

No passes found over London.
NETSAT-2